Content
SEND FEEDBACK

Daily
Averages
Monthly
Summary
United States of America

LOWER ECHO LAKE, CALIFORNIA


Home > North America > United States > California
Elevation: 6350 feet     Latitude: 38 51N     Longitude: 120 01W

WEATHER
 
SELECT A DAY
Number of Records: 178,820;   Date Range: 1/1/95 - 12/24/14
 
SHARE

PRINT THIS DATA

[ ← Previous Day ]
WEATHER ALMANAC - APRIL 27, 2013
[ Next Day → ]
[ °C ]   °F
Weather ElementAverageHighLow
Temperature53.1 °F72 °F (2:53 pm)33.1 °F (6:53 am)
Dewpoint32.3 °F37 °F (9:53 am)26.1 °F (2:53 pm)
Humidity51.3 %85 % (6:53 am)18 % (2:53 pm)
Barometer30.25 in30.33 in (7:53 am)30.19 in (10:53 pm)
Wind Speed3.5 mph11.5 mph (2:53 pm)
Wind Gust19.6 mph (2:53 pm)
Weather ElementAverage
Visibility10 mi
Wind DirectionENE (67.4 °)

Weather ElementTotal
Precipitation---
Heating Degree Days12.5 (Base 65)
Growing Degree Days2.6 (Base 50)
Averaged from 23 records on April 27, 2013
WEATHER CONDITIONS BREAKOUT
WIND DIRECTION BREAKOUT
WEATHER BY HOUR - APRIL 27, 2013
[ °C ]   °F
Local TimeTemperatureDewpointHumidityBarometerVisibilityWind DirectionWind SpeedGust SpeedPrecipitationEventsConditions
1:53 AM39.0 °F32.0 °F76 %30.28 in10.0 miSouth (180°)3.5 mphClear
2:53 AM39.0 °F30.9 °F73 %30.27 in10.0 miCalmClear
3:53 AM36.0 °F30.0 °F79 %30.27 in10.0 miSouth (190°)3.5 mphClear
4:53 AM35.1 °F30.0 °F82 %30.29 in10.0 miCalmClear
5:53 AM34.0 °F28.0 °F79 %30.30 in10.0 miSouth (190°)3.5 mphClear
6:53 AM33.1 °F28.9 °F85 %30.32 in10.0 miCalmClear
7:53 AM41.0 °F34.0 °F76 %30.33 in10.0 miCalmClear
8:53 AM53.1 °F36.0 °F52 %30.31 in10.0 miCalmClear
9:53 AM61.0 °F37.0 °F41 %30.28 in10.0 miNE (50°)5.8 mphClear
10:53 AM63.0 °F36.0 °F37 %30.29 in10.0 miNE (40°)6.9 mphClear
11:53 AM66.0 °F36.0 °F33 %30.27 in10.0 miNE (40°)6.9 mphClear
12:53 PM68.0 °F35.1 °F30 %30.25 in10.0 miNNE (30°)8.1 mphClear
1:53 PM71.1 °F28.9 °F21 %30.23 in10.0 miCalmClear
2:53 PM72.0 °F26.1 °F18 %30.22 in10.0 miSSW (200°)11.5 mph19.6 mphClear
3:53 PM70.0 °F28.9 °F22 %30.22 in10.0 miSSW (200°)11.5 mph19.6 mphClear
4:53 PM70.0 °F30.0 °F23 %30.21 in10.0 miVariable5.8 mph19.6 mphClear
5:53 PM66.9 °F30.9 °F26 %30.21 in10.0 miSSW (210°)6.9 mphClear
6:53 PM63.0 °F34.0 °F34 %30.22 in10.0 miVariable3.5 mphClear
7:53 PM55.0 °F36.0 °F49 %30.22 in10.0 miCalmClear
8:53 PM51.1 °F35.1 °F54 %30.21 in10.0 miCalmClear
9:53 PM48.0 °F34.0 °F58 %30.20 in10.0 miCalmClear
10:53 PM45.0 °F33.1 °F63 %30.19 in10.0 miSW (220°)3.5 mphClear
11:53 PM41.0 °F32.0 °F70 %30.19 in10.0 miCalmClear
Hourly data recorded from KTVL, located miles away from Lower Echo Lake, California







STORIES FROM OUR PARTNERS